This is the latest recevied weather packets stored in our database for station/object OH2HCY-3. If no packets are shown the sender has not sent any weather packets the latest 10 day(s).
| Time | Temp. | Humidity | Pressure | Rain* | Wind** | Luminosity | Snow |
|---|---|---|---|---|---|---|---|
| 1787756369 | 20.56° C | 51% | 1025.3 hPa | - | - | - | - |
| 1787755389 | 20.56° C | 49% | 1025.3 hPa | - | - | - | - |
| 1787755384 | 20.56° C | 49% | 1025.3 hPa | - | - | - | - |
| 1787754257 | 20.56° C | 49% | 1025.3 hPa | - | - | - | - |
| 1787753192 | 20° C | 54% | 1025.3 hPa | - | - | - | - |
| 1787752165 | 19.44° C | 54% | 1025.3 hPa | - | - | - | - |
| 1787751094 | 20° C | 48% | 1025.2 hPa | - | - | - | - |
| 1787751092 | 20° C | 48% | 1025.2 hPa | - | - | - | - |
| 1787750057 | 20.56° C | 52% | 1025.2 hPa | - | - | - | - |
| 1787749045 | 20° C | 51% | 1025.2 hPa | - | - | - | - |
| 1787747896 | 20.56° C | 51% | 1025.1 hPa | - | - | - | - |
| 1787746820 | 21.11° C | 47% | 1025.1 hPa | - | - | - | - |
| 1787745697 | 21.11° C | 48% | 1025 hPa | - | - | - | - |
| 1787744584 | 21.67° C | 48% | 1025 hPa | - | - | - | - |
| 1787743561 | 21.11° C | 48% | 1024.9 hPa | - | - | - | - |
| 1787742544 | 21.67° C | 46% | 1024.7 hPa | - | - | - | - |
| 1787741404 | 21.11° C | 45% | 1024.8 hPa | - | - | - | - |
| 1787740222 | 20.56° C | 47% | 1024.9 hPa | - | - | - | - |
| 1787739167 | 20.56° C | 49% | 1024.8 hPa | - | - | - | - |
| 1787738082 | 20.56° C | 47% | 1024.8 hPa | - | - | - | - |
| 1787736978 | 20.56° C | 50% | 1024.8 hPa | - | - | - | - |
| 1787735866 | 20° C | 51% | 1024.8 hPa | - | - | - | - |
| 1787734707 | 19.44° C | 49% | 1024.8 hPa | - | - | - | - |
| 1787733637 | 19.44° C | 52% | 1024.7 hPa | - | - | - | - |
| 1787732572 | 19.44° C | 50% | 1024.6 hPa | - | - | - | - |
* Rain since midnight (hover to see other rain measurements)
** Current wind speed in m/s (hover to see current wind gust speed)